TimeCST,TemperatureF,Dew PointF,Humidity,Sea Level PressureIn,VisibilityMPH,Wind Direction,Wind SpeedMPH,Gust SpeedMPH,PrecipitationIn,Events,Conditions,WindDirDegrees,DateUTC
12:35 AM,57.2,55.4,94,30.14,2.5,Calm,Calm,-,0.04,Rain,Rain,0,2012-11-23 06:35:00
12:53 AM,57.0,55.9,96,30.13,1.8,Calm,Calm,-,0.08,Rain,Heavy Rain,0,2012-11-23 06:53:00
1:13 AM,57.2,55.4,94,30.13,3.0,Calm,Calm,-,0.08,Rain,Light Rain,0,2012-11-23 07:13:00
1:53 AM,57.0,55.9,96,30.12,5.0,Calm,Calm,-,0.09,,Overcast,0,2012-11-23 07:53:00
2:23 AM,55.4,55.4,100,30.15,2.5,NNW,8.1,16.1,N/A,,Mostly Cloudy,340,2012-11-23 08:23:00
2:31 AM,57.2,55.4,94,30.15,6.0,Variable,4.6,-,N/A,,Mostly Cloudy,0,2012-11-23 08:31:00
2:53 AM,57.0,55.9,96,30.16,8.0,Calm,Calm,-,N/A,,Mostly Cloudy,0,2012-11-23 08:53:00
3:57 AM,55.4,55.4,100,30.17,1.8,Calm,Calm,-,N/A,,Mostly Cloudy,0,2012-11-23 09:57:00
4:19 AM,55.4,55.4,100,30.18,2.5,Calm,Calm,-,N/A,,Overcast,0,2012-11-23 10:19:00
4:53 AM,55.9,55.0,97,30.19,3.0,Calm,Calm,-,0.00,Rain,Light Rain,0,2012-11-23 10:53:00
6:14 AM,55.4,51.8,88,30.25,10.0,Variable,5.8,-,N/A,,Overcast,0,2012-11-23 12:14:00
6:53 AM,55.0,48.9,80,30.27,10.0,Variable,4.6,-,N/A,,Mostly Cloudy,0,2012-11-23 12:53:00
7:53 AM,52.0,46.9,83,30.31,10.0,Calm,Calm,-,N/A,,Clear,0,2012-11-23 13:53:00
8:53 AM,55.0,35.1,47,30.32,10.0,Variable,3.5,-,N/A,,Clear,0,2012-11-23 14:53:00
9:53 AM,57.9,30.9,36,30.33,10.0,NNW,6.9,-,N/A,,Clear,340,2012-11-23 15:53:00
10:53 AM,60.1,28.0,30,30.33,10.0,Variable,3.5,-,N/A,,Clear,0,2012-11-23 16:53:00
11:53 AM,60.1,28.0,30,30.32,10.0,NNW,12.7,20.7,N/A,,Clear,340,2012-11-23 17:53:00
12:53 PM,60.1,28.0,30,30.30,10.0,North,11.5,18.4,N/A,,Clear,350,2012-11-23 18:53:00
1:53 PM,60.1,27.0,28,30.29,10.0,NNW,10.4,20.7,N/A,,Clear,340,2012-11-23 19:53:00
2:53 PM,59.0,25.0,27,30.29,10.0,NW,8.1,21.9,N/A,,Clear,320,2012-11-23 20:53:00
3:53 PM,55.9,24.1,29,30.31,10.0,NW,9.2,17.3,N/A,,Clear,310,2012-11-23 21:53:00
4:53 PM,51.1,23.0,33,30.32,10.0,NNW,8.1,-,N/A,,Clear,330,2012-11-23 22:53:00
5:53 PM,48.0,21.0,34,30.34,10.0,NNW,8.1,20.7,N/A,,Clear,330,2012-11-23 23:53:00
6:53 PM,45.0,21.0,39,30.36,10.0,NNW,8.1,-,N/A,,Clear,330,2012-11-24 00:53:00
7:53 PM,44.1,21.0,40,30.38,10.0,Variable,6.9,-,N/A,,Clear,0,2012-11-24 01:53:00
8:53 PM,42.1,21.0,43,30.38,10.0,NNW,5.8,-,N/A,,Clear,330,2012-11-24 02:53:00
9:53 PM,39.0,23.0,53,30.38,10.0,Calm,Calm,-,N/A,,Clear,0,2012-11-24 03:53:00
10:53 PM,36.0,23.0,59,30.39,10.0,Calm,Calm,-,N/A,,Clear,0,2012-11-24 04:53:00
11:53 PM,34.0,24.1,67,30.39,10.0,Calm,Calm,-,N/A,,Clear,0,2012-11-24 05:53:00